Location: Unspecified
(45.3712°N, 0.6436°E)
Time: 02:41:42
(UTC+02:00)

ISS - Visible Passes

Search period start: 16 October 2019 00:00
Search period end: 26 October 2019 00:00
Orbit: 411 x 421 km, 51.6° (Epoch: 15 October)

Date Brightness Start Highest point End Pass type
(mag) Time Alt. Az. Time Alt. Az. Time Alt. Az.
23 Oct -0.8 07:36:07 10° S 07:38:21 17° SE 07:40:37 10° E visible
24 Oct -0.4 06:49:44 10° SE 06:50:01 10° SE 06:50:17 10° SE visible
25 Oct -2.4 07:34:30 10° SSW 07:37:40 40° SE 07:40:52 10° ENE visible
